Weather History for MZBZ - July, 2015

Change the Weather History Date:

Monday, July 27, 2015

  Actual Average Record
Temperature  
Mean Temperature 84 °F -  
Max Temperature 89 °F 89 °F 89 °F (1999)
Min Temperature 80 °F 76 °F 75 °F (1998)
Cooling Degree Days 20    
Growing Degree Days 34 (Base 50)    
Moisture  
Dew Point 77 °F    
Average Humidity 71    
Maximum Humidity 89    
Minimum Humidity 57    
Precipitation  
Precipitation 0.00 in 0.25 in - ()
Sea Level Pressure  
Sea Level Pressure 29.94 in    
Wind  
Wind Speed 7 mph ()    
Max Wind Speed 10 mph    
Max Gust Speed -    
Visibility 8.9 miles    
Events      
Averages and records for this station are not official NWS values.
T = Trace of Precipitation, MM = Missing Value Source: Averaged Metar Reports

Daily Weather History Graph

Daily Weather History Graph

Search for Another Location

Airport or City:

Trip Planner

Search our weather history database for the weather conditions in past years. The results will help you decide how hot, cold, wet, or windy it might be!

Date:

Astronomy

Jul. 27, 2015 Rise Set
Actual Time 5:30 AM CST 6:28 PM CST
Civil Twilight 5:07 AM CST 6:51 PM CST
Nautical Twilight 4:39 AM CST 7:19 PM CST
Astronomical Twilight 4:11 AM CST 7:47 PM CST
Moon 3:04 PM CST (7/27) 1:49 AM CST (7/27)
Length of Visible Light 13h 44m
Length of Day
12h 57m
Waxing Gibbous, 83% of the Moon is Illuminated
Jul 27
Waxing Gibbous
Jul 31
Full
Aug 6
Last Quarter
Aug 14
New
Aug 22
First Quarter

Hourly Weather History & Observations

Time (CST) Temp. Heat Index Dew Point Humidity Pressure Visibility Wind Dir Wind Speed Gust Speed Precip Events Conditions
12:00 AM 83 °F - 77 °F 78% 29.97 in 12 mi East 5.8 mph - -   Mostly Cloudy
3:00 AM 82 °F - 77 °F 81% 29.92 in 12 mi ESE 5.8 mph - -   Partly Cloudy
5:00 AM 80.6 °F 87.1 °F 77.0 °F 89% 29.90 in 6.2 mi East 5.8 mph - N/A   Partly Cloudy
6:00 AM 81 °F - 77 °F 85% 29.93 in 12 mi East 3.5 mph - -   Partly Cloudy
6:00 AM 80.6 °F 87.1 °F 77.0 °F 89% 29.93 in 6.2 mi East 3.5 mph - N/A   Scattered Clouds
7:00 AM 84.2 °F 94.1 °F 77.0 °F 79% 29.95 in 6.2 mi East 5.8 mph - N/A   Scattered Clouds
8:00 AM 86.0 °F 96.9 °F 77.0 °F 74% 29.96 in 6.2 mi ESE 8.1 mph - N/A   Mostly Cloudy
9:00 AM 87 °F - 77 °F 65% 29.97 in 16 mi East 8.1 mph - -   Partly Cloudy
9:00 AM 87.8 °F 99.7 °F 77.0 °F 70% 29.97 in 6.2 mi East 8.1 mph - N/A   Scattered Clouds
10:00 AM 87.8 °F 99.7 °F 77.0 °F 70% 29.96 in 6.2 mi East 9.2 mph - N/A   Scattered Clouds
11:00 AM 87.8 °F 99.7 °F 77.0 °F 70% 29.95 in 6.2 mi East 10.4 mph - N/A   Scattered Clouds
12:00 PM 89 °F - 77 °F 60% 29.96 in 16 mi ENE 10.4 mph - -   Partly Cloudy
12:00 PM 89.6 °F 102.2 °F 77.0 °F 66% 29.95 in 6.2 mi ENE 10.4 mph - N/A   Scattered Clouds
1:00 PM 89.6 °F 99.8 °F 75.2 °F 62% 29.95 in 6.2 mi ENE 10.4 mph - N/A   Scattered Clouds
2:00 PM 89.6 °F 102.2 °F 77.0 °F 66% 29.94 in 6.2 mi ENE 10.4 mph - N/A   Scattered Clouds
3:00 PM 89 °F - 76 °F 57% 29.93 in 16 mi ENE 9.2 mph - -   Scattered Clouds
3:00 PM 89.6 °F 99.8 °F 75.2 °F 62% 29.93 in 6.2 mi ENE 9.2 mph - N/A   Partly Cloudy
4:00 PM 87.8 °F 99.7 °F 77.0 °F 70% 29.92 in 6.2 mi East 9.2 mph - N/A   Partly Cloudy
5:00 PM 87.8 °F 99.7 °F 77.0 °F 70% 29.92 in 6.2 mi East 9.2 mph - N/A   Partly Cloudy
6:00 PM 86 °F - 76 °F 65% 29.94 in 12 mi ENE 9.2 mph - -   Scattered Clouds
6:00 PM 86.0 °F 95.1 °F 75.2 °F 70% 29.93 in 6.2 mi ENE 9.2 mph - N/A   Partly Cloudy
9:00 PM 85 °F - 77 °F 71% 29.96 in 12 mi ENE 9.2 mph - -   Scattered Clouds